Regional Weather Roundup
Issued by NWS

Home | Current Version | Previous Version | Graphics & Text | Print | Product List | Glossary On
Versions: 1 2 3 4 5 6 7 8 9 10 11 12 13 14 15 16 17 18 19 20 21 22 23 24 25 26 27 28 29 30 31 32 33 34 35 36 37 38 39 40 41 42 43 44 45 46 47 48 49 50
434
ASUS44 KLIX 250310
RWRLA
LOUISIANA WEATHER ROUNDUP
NATIONAL WEATHER SERVICE NEW ORLEANS LA
900 PM CST SAT JAN 24 2015

NOTE: "FAIR" INDICATES FEW OR NO CLOUDS BELOW 12,000 FEET WITH NO
      SIGNIFICANT WEATHER AND/OR OBSTRUCTIONS TO VISIBILITY.
      SKY/WX - SKY CONDITION AND SIGNIFICANT WEATHER.
      TMP - AIR TEMPERATURE.    DP   - DEWPOINT TEMPERATURE.
      RH  - RELATIVE HUMIDITY.  PRES - PRESSURE.
      HX  - HEAT INDEX.         WCI  - WIND CHILL INDEX.

*  THESE STATIONS ARE NOT NWS OR FAA STATIONS AND ARE NOT UNDER
   NWS QUALITY CONTROL.

LAZ040-048-061>063-065-066-069-250400-
SOUTHEAST LOUISIANA

CITY           SKY/WX    TMP DP  RH WIND       PRES   REMARKS
N.O. AUDUBON   NOT AVBL
N.O. INTL ARPT PTCLDY    47  36  65 SW9       30.09S
N.O. LAKEFRONT CLEAR     50  36  58 SW10      30.09S
N.O. DOWNTOWN* FAIR      48  36  61 S5        30.10S
SLIDELL        CLEAR     40  36  86 CALM      30.07F
BATON ROUGE    CLEAR     48  36  63 SW9       30.08R
BOOTHVILLE     CLEAR     50  43  77 W7        30.11S
BELLE CHASSE   PTCLDY    48  39  71 SW8       30.10S
BOGALUSA*        N/A     40  36  87 CALM      30.08F
GALLIANO*      CLEAR     49  43  79 MISG      30.12S
NEW ROADS*     FAIR      46  38  72 SW6       30.08S
GONZALES*      FAIR      47  40  75 CALM      30.08F
HAMMOND*       CLEAR     41  36  81 CALM      30.08F
HOUMA*         CLEAR     45  41  85 SW6       30.11F
PORT FOURCHON* CLEAR     52  41  66 W13       30.15F

$$

LAZ041-044-053-054-250400-
SOUTHWEST LOUISIANA

CITY           SKY/WX    TMP DP  RH WIND       PRES   REMARKS
LAKE CHARLES   CLEAR     48  44  86 SW6       30.09F
LAFAYETTE      CLEAR     45  40  82 SW7       30.09F
PATTERSON      PTCLDY    45  39  81 SW6       30.12S
SALT POINT       N/A     50  46  86 SW5       30.11S
NEW IBERIA     CLEAR     44  39  82 SW6       30.11S
CHENAULT AIRPK CLEAR     48  44  84 SW7       30.10S

$$

LAZ027-028-250400-
CENTRAL LOUISIANA

CITY           SKY/WX    TMP DP  RH WIND       PRES   REMARKS
FORT POLK      PTCLDY    47  40  75 SW3       30.05F
ALEXANDRIA INT CLEAR     44  39  82 CALM      30.03F
ALEXANDRIA     PTCLDY    40  36  86 CALM      30.04F

$$

LAZ001-002-250400-
NORTHWEST LOUISIANA

CITY           SKY/WX    TMP DP  RH WIND       PRES   REMARKS
SHREVEPORT     MOCLDY    43  33  68 W5        30.02S
BARKSDALE AFB  PTCLDY    42  33  70 CALM      30.03R
DTN SHREVEPORT PTCLDY    47  33  58 W7        30.02S

$$

LAZ014-016-250400-
NORTHEAST LOUISIANA

CITY           SKY/WX    TMP DP  RH WIND       PRES   REMARKS
MONROE         CLEAR     45  37  73 SW5       30.03S
TALLULAH       CLEAR     45  36  70 CALM      30.03F

$$




USA.gov is the U.S. government's official web portal to all federal, state and local government web resources and services.